Location: Lussas
(44.6119°N, 4.4726°E)
Time: 10:27:20
(UTC+00:00)

SAR-Lupe-1 - Visible Passes

Search period start: 29 July 2021 00:00
Search period end: 08 August 2021 00:00
Orbit: 482 x 483 km, 98.2° (Epoch: 30 March)

Date Brightness Start Highest point End Pass type
(mag) Time Alt. Az. Time Alt. Az. Time Alt. Az.
29 Jul 6.9 20:36:54 10° NNW 20:39:38 21° WNW 20:42:21 10° WSW visible
30 Jul 5.6 20:11:16 10° N 20:14:38 40° WNW 20:17:59 10° SW visible
31 Jul 4.1 19:45:57 10° NNE 19:49:33 86° W 19:53:07 10° SSW visible
01 Aug 7.3 20:55:23 10° NNW 20:57:19 14° WNW 20:59:14 10° W visible
02 Aug 6.5 20:29:20 10° N 20:32:22 26° WNW 20:35:22 10° SW visible
03 Aug 5.0 20:03:49 10° N 20:07:19 52° WNW 20:10:48 10° SSW visible
04 Aug 4.0 19:38:36 10° NNE 19:42:11 72° ESE 19:45:45 10° S visible
05 Aug 7.1 20:47:36 10° NNW 20:50:02 17° WNW 20:52:27 10° WSW visible
06 Aug 6.0 20:21:48 10° N 20:25:03 32° WNW 20:28:16 10° SW visible
07 Aug 4.4 19:56:23 10° N 19:59:58 69° WNW 20:03:30 10° SSW visible
